Location: *
(55.6049°S, 142.1985°W)
Time: 00:50:43
(UTC+00:00)

ATLAS 2AS CENTAUR R/B - Pass Details

Date: 12 May 2021
Orbit: 949 x 1263 km, 63.7° (Epoch: 07 May)

Event Time Altitude Azimuth Distance (km) Brightness Sun altitude
Exits shadow 12:30:13 38° 120° (ESE) 1,480 3.7 -39.0°
Drops below altitude 10° 12:34:06 10° 128° (SE) 2,804 5.6 -38.5°
Sets 12:36:46 0° 129° (SE) 3,795 6.5 -38.2°
